This is the latest recevied weather packets stored in our database for station/object KO4RMV-3. If no packets are shown the sender has not sent any weather packets the latest 10 day(s).
| Time | Temp. | Humidity | Pressure | Rain* | Wind** | Luminosity | Snow |
|---|---|---|---|---|---|---|---|
| 1778149805 | 13.89° C | 84% | - | 0 mm | - | - | - |
| 1778148905 | 13.89° C | 86% | - | 0 mm | - | - | - |
| 1778148005 | 13.89° C | 86% | - | 0 mm | - | - | - |
| 1778147105 | 14.44° C | 86% | - | 0 mm | - | - | - |
| 1778146205 | 14.44° C | 86% | - | 1.02 mm | - | - | - |
| 1778145305 | 15° C | 86% | - | 0 mm | - | - | - |
| 1778144406 | 15° C | 85% | - | 0 mm | - | - | - |
| 1778143506 | 15.56° C | 84% | - | 0 mm | - | - | - |
| 1778142606 | 16.67° C | 82% | - | 0 mm | - | - | - |
| 1778141706 | 17.22° C | 82% | - | 0 mm | - | - | - |
| 1778140806 | 18.33° C | 83% | - | 0 mm | - | - | - |
| 1778139906 | 19.44° C | 87% | - | 0 mm | - | - | - |
| 1778139006 | 19.44° C | 87% | - | 0 mm | - | - | - |
| 1778138105 | 19.44° C | 86% | - | 0 mm | - | - | - |
| 1778137205 | 20° C | 85% | - | 0 mm | - | - | - |
| 1778136305 | 20.56° C | 83% | - | 0 mm | - | - | - |
| 1778135405 | 20.56° C | 81% | - | 0 mm | - | - | - |
| 1778134505 | 20.56° C | 81% | - | 0 mm | - | - | - |
| 1778133605 | 20.56° C | 81% | - | 0 mm | - | - | - |
| 1778132705 | 20.56° C | 81% | - | 0 mm | - | - | - |
| 1778131805 | 20.56° C | 81% | - | 0 mm | - | - | - |
| 1778130905 | 20.56° C | 81% | - | 0 mm | - | - | - |
| 1778130005 | 20.56° C | 81% | - | 0 mm | - | - | - |
| 1778129106 | 20.56° C | 81% | - | 0 mm | - | - | - |
| 1778128206 | 20.56° C | 81% | - | 0 mm | - | - | - |
* Rain latest hour (hover to see other rain measurements)
** Current wind speed in m/s (hover to see current wind gust speed)